GAOFEN-5 01

Last updated on Mon Sep 07 2026 00:02:46 GMT+0000 (Coordinated Universal Time)

1 43461U 18043A 26249.51294146 .00000164 00000+0 43902-4 0 9991 2 43461 98.4671 222.8479 0001935 148.4873 211.6443 14.60652367443565
UTC large
Height (km)
Speed (km/s)
/
Latitude / Longitude
Inclination (degrees)
Orbital Period (minutes)
Azimuth
Elevation
Range (km)
Doppler Factor

Next 0 passes for location: London (51.5072 / 0.1276)

No passes found over London.
GAOFEN-5 01